Regional Weather Roundup
Issued by NWS

Home | Current Version | Previous Version | Text Only | Print | Product List | Glossary On
Versions: 1 2 3 4 5 6 7 8 9 10 11 12 13 14 15 16 17 18 19 20 21 22 23 24 25 26 27 28 29 30 31 32 33 34 35 36 37 38 39 40 41 42 43 44 45 46 47 48 49 50
000
ASUS44 KJAN 190910
RWRMS

MISSISSIPPI HOURLY WEATHER ROUNDUP
NATIONAL WEATHER SERVICE JACKSON MS
400 AM CDT SAT AUG 19 2017

NOTE: "FAIR: INDICATES FEW OR NO CLOUDS BELOW 12,000 FEET WITH NO
SIGNIFICANT WEATHER AND/OR OBSTRUCTIONS TO VISIBILITY.

MSZ001>002-007>008-010>013-018>021-025>028-034>036-191000-
NORTHWEST MISSISSIPPI

CITY           SKY/WX    TMP DP  RH WIND       PRES   REMARKS
BATESVILLE     FAIR      73  72  94 CALM      29.98S
CLARKSDALE       N/A     75  75 100 CALM      29.96R
CLEVELAND      LGT RAIN  74  74 100 SW6       29.95F
GREENWOOD      PTCLDY    77  75  93 CALM      29.96F
GREENVILLE     PTCLDY    76  70  82 W3        29.97F
OXFORD         FAIR      73  70  88 CALM      29.99F
TUNICA           N/A     73  72  94 CALM      29.98R
WINONA         FOG       73  73 100 CALM      29.97F VSB 1
$$

MSZ003>006-009-014>017-022>024-029>033-037>039-191000-
NORTHEAST MISSISSIPPI

CITY           SKY/WX    TMP DP  RH WIND       PRES   REMARKS
COLUMBUS AFB   PTCLDY    73  73 100 CALM      29.97S
GOLDN TRIANGLE CLOUDY    75  70  83 MISG        N/A
STARKVILLE       N/A     73  72  94 CALM      29.98F FOG
TUPELO         CLOUDY    74  70  87 CALM      29.98S
$$

MSZ040-058-191000-
CENTRAL MISSISSIPPI

CITY           SKY/WX    TMP DP  RH WIND       PRES   REMARKS
JACKSON INTL   PTCLDY    76  74  93 S3        29.99F
JACKSON HAWKNS PTCLDY    77  76  96 CALM      30.00S
MADISON        FAIR      73  72  94 CALM      29.99S
MERIDIAN KEY   PTCLDY    76  75  97 SW3       29.99F
MERIDIAN NAS   PTCLDY    77  74  90 CALM      29.99F
RAYMOND        FAIR      77  75  94 CALM      29.99S FOG
VICKSBURG VKS  SUNNY     77  77 100 CALM      29.98S FOG
$$

MSZ059>079-191000-
SOUTH MISSISSIPPI

CITY           SKY/WX    TMP DP  RH WIND       PRES   REMARKS
COLUMBIA       FAIR      72 N/A N/A CALM      30.02S
HATTIESBURG    CLEAR     74  74 100 CALM      30.00S
LAUREL         FAIR      73  73 100 CALM      30.00S
MCCOMB         CLEAR     75  72  90 CALM      30.01S
NATCHEZ        CLEAR     77  75  93 S3        30.00F
PINE BELT      CLEAR     75  73  93 CALM      30.01S
$$

MSZ080>082-191000-
COASTAL MISSISSIPPI

CITY           SKY/WX    TMP DP  RH WIND       PRES   REMARKS
BILOXI         CLEAR     78  75  93 CALM      29.97S
PASCAGOULA     CLEAR     74  71  91 CALM      29.98R
GULFPORT       CLEAR     77  76  96 CALM      29.97S
$$

LAZ007>009-015>016-023>026-191000-
NORTHEAST LOUISIANA

CITY           SKY/WX    TMP DP  RH WIND       PRES   REMARKS
BASTROP        FAIR      75  75  98 CALM      30.00S FOG
TALLULAH/VBURG CLEAR     77  75  93 CALM      29.99S FOG
VIDALIA          N/A    N/A N/A N/A MISG      29.98F
$$



USA.gov is the U.S. government's official web portal to all federal, state and local government web resources and services.